Location: Allaines
(49.9632°N, 2.9458°E)
Time: 22:01:24
(UTC+00:00)

Tianhe-1 - Visible Passes

Search period start: 23 June 2021 00:00
Search period end: 03 July 2021 00:00
Orbit: 375 x 386 km, 41.5° (Epoch: 23 June)

Date Brightness Start Highest point End Pass type
(mag) Time Alt. Az. Time Alt. Az. Time Alt. Az.
24 Jun 3.3 02:00:20 12° SSE 02:00:36 12° SSE 02:01:51 10° SE visible
25 Jun 2.9 02:34:02 12° SSW 02:35:47 17° S 02:37:55 10° SE visible
26 Jun 3.2 01:35:38 14° SSE 01:35:38 14° SSE 01:36:46 10° SE visible
27 Jun 2.7 02:09:25 17° SSW 02:10:07 18° S 02:12:19 10° SE visible
28 Jun 3.6 01:11:11 10° SE 01:11:11 10° SE 01:11:18 10° SE visible
28 Jun 2.9 02:43:19 10° SW 02:45:17 16° S 02:47:16 10° SSE visible
29 Jun 3.0 01:45:18 15° SSE 01:45:18 15° SSE 01:46:31 10° SE visible
30 Jun 3.1 02:19:47 13° S 02:19:47 13° S 02:21:01 10° SSE visible
